owner,sensor,date,latitude,longitude,vertical_datum,sea_water_temperature,qcFlag
Chevron,ioos:station:wmo:42876:1,2021-07-01T00:06:00Z,26.2975,-91.0939,1.6,28.7,11111222
Chevron,ioos:station:wmo:42876:1,2021-07-01T00:16:00Z,26.2975,-91.0939,1.6,28.7,11111222
Chevron,ioos:station:wmo:42876:1,2021-07-01T00:26:00Z,26.2975,-91.0939,1.8,28.6,11111222
Chevron,ioos:station:wmo:42876:1,2021-07-01T00:36:00Z,26.2975,-91.0939,1.7,28.6,11111222
Chevron,ioos:station:wmo:42876:1,2021-07-01T00:46:00Z,26.2975,-91.0939,1.8,28.6,11111222
Chevron,ioos:station:wmo:42876:1,2021-07-01T00:56:00Z,26.2975,-91.0939,1.6,28.5,11111222
Chevron,ioos:station:wmo:42876:1,2021-07-01T01:06:00Z,26.2975,-91.0939,1.4,28.5,11111222
Chevron,ioos:station:wmo:42876:1,2021-07-01T01:16:00Z,26.2975,-91.0939,1.6,28.5,11111222
Chevron,ioos:station:wmo:42876:1,2021-07-01T01:26:00Z,26.2975,-91.0939,1.6,28.5,11111222
Chevron,ioos:station:wmo:42876:1,2021-07-01T01:36:00Z,26.2975,-91.0939,1.1,28.5,11111222
Chevron,ioos:station:wmo:42876:1,2021-07-01T01:46:00Z,26.2975,-91.0939,1.3,28.5,11111222
Chevron,ioos:station:wmo:42876:1,2021-07-01T01:56:00Z,26.2975,-91.0939,1.4,28.6,11111222
Chevron,ioos:station:wmo:42876:1,2021-07-01T02:06:00Z,26.2975,-91.0939,1.4,28.5,11111222
Chevron,ioos:station:wmo:42876:1,2021-07-01T02:16:00Z,26.2975,-91.0939,1.3,28.5,11111222
Chevron,ioos:station:wmo:42876:1,2021-07-01T02:26:00Z,26.2975,-91.0939,1.3,28.5,11111222
Chevron,ioos:station:wmo:42876:1,2021-07-01T02:36:00Z,26.2975,-91.0939,1.4,28.4,11111222
Chevron,ioos:station:wmo:42876:1,2021-07-01T02:46:00Z,26.2975,-91.0939,1.6,28.4,11111222
Chevron,ioos:station:wmo:42876:1,2021-07-01T02:56:00Z,26.2975,-91.0939,1.4,28.4,11111222
Chevron,ioos:station:wmo:42876:1,2021-07-01T03:06:00Z,26.2975,-91.0939,1.2,28.4,11111222
Chevron,ioos:station:wmo:42876:1,2021-07-01T03:16:00Z,26.2975,-91.0939,1.6,28.4,11111222
Chevron,ioos:station:wmo:42876:1,2021-07-01T03:26:00Z,26.2975,-91.0939,1.7,28.4,11111222
Chevron,ioos:station:wmo:42876:1,2021-07-01T03:36:00Z,26.2975,-91.0939,2.0,28.4,11111222
Chevron,ioos:station:wmo:42876:1,2021-07-01T03:46:00Z,26.2975,-91.0939,1.6,28.4,11111222
Chevron,ioos:station:wmo:42876:1,2021-07-01T03:56:00Z,26.2975,-91.0939,1.7,28.4,11111222
Chevron,ioos:station:wmo:42876:1,2021-07-01T04:06:00Z,26.2975,-91.0939,1.6,28.4,11111222
Chevron,ioos:station:wmo:42876:1,2021-07-01T04:16:00Z,26.2975,-91.0939,1.6,28.4,11111222
Chevron,ioos:station:wmo:42876:1,2021-07-01T04:26:00Z,26.2975,-91.0939,1.4,28.4,11111222
Chevron,ioos:station:wmo:42876:1,2021-07-01T04:36:00Z,26.2975,-91.0939,1.6,28.4,11111222
Chevron,ioos:station:wmo:42876:1,2021-07-01T04:46:00Z,26.2975,-91.0939,1.5,28.3,11111222
Chevron,ioos:station:wmo:42876:1,2021-07-01T04:56:00Z,26.2975,-91.0940,1.4,28.3,11111222
Chevron,ioos:station:wmo:42876:1,2021-07-01T05:06:00Z,26.2975,-91.0940,1.9,28.3,11111222
Chevron,ioos:station:wmo:42876:1,2021-07-01T05:16:00Z,26.2975,-91.0939,2.3,28.4,11111222
Chevron,ioos:station:wmo:42876:1,2021-07-01T05:26:00Z,26.2975,-91.0939,1.5,28.4,11111222
Chevron,ioos:station:wmo:42876:1,2021-07-01T05:36:00Z,26.2975,-91.0939,1.2,28.3,11111222
Chevron,ioos:station:wmo:42876:1,2021-07-01T05:46:00Z,26.2975,-91.0939,1.6,28.3,11111222
Chevron,ioos:station:wmo:42876:1,2021-07-01T05:56:00Z,26.2975,-91.0939,1.8,28.3,11111222
Chevron,ioos:station:wmo:42876:1,2021-07-01T06:06:00Z,26.2975,-91.0939,1.5,28.3,11111222
Chevron,ioos:station:wmo:42876:1,2021-07-01T06:16:00Z,26.2975,-91.0939,1.5,28.3,11111222
Chevron,ioos:station:wmo:42876:1,2021-07-01T06:26:00Z,26.2975,-91.0940,1.8,28.3,11111222
Chevron,ioos:station:wmo:42876:1,2021-07-01T06:36:00Z,26.2975,-91.0940,2.0,28.3,11111222
Chevron,ioos:station:wmo:42876:1,2021-07-01T06:46:00Z,26.2975,-91.0940,1.9,28.4,11111222
Chevron,ioos:station:wmo:42876:1,2021-07-01T06:56:00Z,26.2975,-91.0940,2.2,28.4,11111222
Chevron,ioos:station:wmo:42876:1,2021-07-01T07:06:00Z,26.2975,-91.0940,1.7,28.4,11111222
Chevron,ioos:station:wmo:42876:1,2021-07-01T07:16:00Z,26.2975,-91.0940,1.7,28.4,11111222
Chevron,ioos:station:wmo:42876:1,2021-07-01T07:26:00Z,26.2975,-91.0940,1.8,28.4,11111222
Chevron,ioos:station:wmo:42876:1,2021-07-01T07:36:00Z,26.2975,-91.0940,1.5,28.4,11111222
Chevron,ioos:station:wmo:42876:1,2021-07-01T07:46:00Z,26.2975,-91.0940,1.9,28.3,11111222
Chevron,ioos:station:wmo:42876:1,2021-07-01T07:56:00Z,26.2975,-91.0940,2.0,28.3,11111222
Chevron,ioos:station:wmo:42876:1,2021-07-01T08:06:00Z,26.2975,-91.0940,1.7,28.3,11111222
Chevron,ioos:station:wmo:42876:1,2021-07-01T08:16:00Z,26.2975,-91.0940,1.8,28.3,11111222
Chevron,ioos:station:wmo:42876:1,2021-07-01T08:26:00Z,26.2975,-91.0940,2.0,28.2,11111222
Chevron,ioos:station:wmo:42876:1,2021-07-01T08:36:00Z,26.2975,-91.0940,1.8,28.2,11111222
Chevron,ioos:station:wmo:42876:1,2021-07-01T08:46:00Z,26.2975,-91.0940,1.9,28.2,11111222
Chevron,ioos:station:wmo:42876:1,2021-07-01T08:56:00Z,26.2975,-91.0940,1.8,28.2,11111222
Chevron,ioos:station:wmo:42876:1,2021-07-01T09:06:00Z,26.2975,-91.0940,2.1,28.2,11111222
Chevron,ioos:station:wmo:42876:1,2021-07-01T09:16:00Z,26.2975,-91.0940,1.9,28.3,11111222
Chevron,ioos:station:wmo:42876:1,2021-07-01T09:26:00Z,26.2975,-91.0940,1.7,28.3,11111222
Chevron,ioos:station:wmo:42876:1,2021-07-01T09:36:00Z,26.2975,-91.0940,1.9,28.3,11111222
Chevron,ioos:station:wmo:42876:1,2021-07-01T09:46:00Z,26.2975,-91.0940,2.1,28.3,11111222
Chevron,ioos:station:wmo:42876:1,2021-07-01T09:56:00Z,26.2975,-91.0940,1.7,28.3,11111222
Chevron,ioos:station:wmo:42876:1,2021-07-01T10:06:00Z,26.2975,-91.0940,1.8,28.3,11111222
Chevron,ioos:station:wmo:42876:1,2021-07-01T10:16:00Z,26.2975,-91.0940,1.6,28.3,11111222
Chevron,ioos:station:wmo:42876:1,2021-07-01T10:26:00Z,26.2975,-91.0940,1.6,28.3,11111222
Chevron,ioos:station:wmo:42876:1,2021-07-01T10:36:00Z,26.2975,-91.0940,1.8,28.3,11111222
Chevron,ioos:station:wmo:42876:1,2021-07-01T10:46:00Z,26.2975,-91.0940,1.6,28.3,11111222
Chevron,ioos:station:wmo:42876:1,2021-07-01T10:56:00Z,26.2975,-91.0940,1.4,28.3,11111222
Chevron,ioos:station:wmo:42876:1,2021-07-01T11:06:00Z,26.2975,-91.0940,1.6,28.3,11111222
Chevron,ioos:station:wmo:42876:1,2021-07-01T11:16:00Z,26.2975,-91.0940,1.5,28.3,11111222
Chevron,ioos:station:wmo:42876:1,2021-07-01T11:26:00Z,26.2975,-91.0940,1.8,28.3,11111222
Chevron,ioos:station:wmo:42876:1,2021-07-01T11:36:00Z,26.2975,-91.0940,1.6,28.3,11111222
Chevron,ioos:station:wmo:42876:1,2021-07-01T11:46:00Z,26.2975,-91.0940,1.9,28.3,11111222
Chevron,ioos:station:wmo:42876:1,2021-07-01T11:56:00Z,26.2975,-91.0940,1.6,28.2,11111222
Chevron,ioos:station:wmo:42876:1,2021-07-01T12:06:00Z,26.2975,-91.0940,1.7,28.2,11111222
Chevron,ioos:station:wmo:42876:1,2021-07-01T12:16:00Z,26.2975,-91.0940,2.0,28.3,11111222
Chevron,ioos:station:wmo:42876:1,2021-07-01T12:26:00Z,26.2975,-91.0940,1.8,28.3,11111222
Chevron,ioos:station:wmo:42876:1,2021-07-01T12:36:00Z,26.2975,-91.0940,1.8,28.3,11111222
Chevron,ioos:station:wmo:42876:1,2021-07-01T12:46:00Z,26.2975,-91.0940,1.7,28.3,11111222
Chevron,ioos:station:wmo:42876:1,2021-07-01T12:56:00Z,26.2975,-91.0940,1.9,28.3,11111222
Chevron,ioos:station:wmo:42876:1,2021-07-01T13:06:00Z,26.2975,-91.0940,2.3,28.3,11111222
Chevron,ioos:station:wmo:42876:1,2021-07-01T13:16:00Z,26.2975,-91.0940,1.9,28.3,11111222
Chevron,ioos:station:wmo:42876:1,2021-07-01T13:26:00Z,26.2975,-91.0940,1.8,28.3,11111222
Chevron,ioos:station:wmo:42876:1,2021-07-01T13:36:00Z,26.2975,-91.0940,2.1,28.3,11111222
Chevron,ioos:station:wmo:42876:1,2021-07-01T13:46:00Z,26.2975,-91.0940,1.8,28.3,11111222
Chevron,ioos:station:wmo:42876:1,2021-07-01T13:56:00Z,26.2975,-91.0940,1.9,28.3,11111222
Chevron,ioos:station:wmo:42876:1,2021-07-01T14:06:00Z,26.2975,-91.0940,1.7,28.3,11111222
Chevron,ioos:station:wmo:42876:1,2021-07-01T14:16:00Z,26.2975,-91.0940,2.1,28.3,11111222
Chevron,ioos:station:wmo:42876:1,2021-07-01T14:26:00Z,26.2975,-91.0940,1.9,28.3,11111222
Chevron,ioos:station:wmo:42876:1,2021-07-01T14:36:00Z,26.2975,-91.0940,1.8,28.3,11111222
Chevron,ioos:station:wmo:42876:1,2021-07-01T14:46:00Z,26.2975,-91.0940,2.0,28.3,11111222
Chevron,ioos:station:wmo:42876:1,2021-07-01T14:56:00Z,26.2975,-91.0940,2.0,28.3,11111222
Chevron,ioos:station:wmo:42876:1,2021-07-01T15:06:00Z,26.2975,-91.0940,1.7,28.3,11111222
Chevron,ioos:station:wmo:42876:1,2021-07-01T15:16:00Z,26.2975,-91.0940,1.7,28.3,11111222
Chevron,ioos:station:wmo:42876:1,2021-07-01T15:26:00Z,26.2975,-91.0940,2.1,28.3,11111222
Chevron,ioos:station:wmo:42876:1,2021-07-01T15:36:00Z,26.2975,-91.0940,1.8,28.3,11111222
Chevron,ioos:station:wmo:42876:1,2021-07-01T15:46:00Z,26.2975,-91.0940,1.5,28.4,11111222
Chevron,ioos:station:wmo:42876:1,2021-07-01T15:56:00Z,26.2975,-91.0940,1.8,28.4,11111222
Chevron,ioos:station:wmo:42876:1,2021-07-01T16:06:00Z,26.2975,-91.0940,1.6,28.3,11111222
Chevron,ioos:station:wmo:42876:1,2021-07-01T16:16:00Z,26.2975,-91.0940,1.6,28.4,11111222
Chevron,ioos:station:wmo:42876:1,2021-07-01T16:26:00Z,26.2975,-91.0940,1.7,28.3,11111222
Chevron,ioos:station:wmo:42876:1,2021-07-01T16:36:00Z,26.2975,-91.0940,1.6,28.3,11111222
Chevron,ioos:station:wmo:42876:1,2021-07-01T16:46:00Z,26.2975,-91.0940,1.6,28.3,11111222
Chevron,ioos:station:wmo:42876:1,2021-07-01T16:56:00Z,26.2975,-91.0940,1.7,28.3,11111222
Chevron,ioos:station:wmo:42876:1,2021-07-01T17:06:00Z,26.2975,-91.0940,1.5,28.3,11111222
Chevron,ioos:station:wmo:42876:1,2021-07-01T17:16:00Z,26.2975,-91.0940,1.5,28.3,11111222
Chevron,ioos:station:wmo:42876:1,2021-07-01T17:26:00Z,26.2975,-91.0940,1.6,28.3,11111222
Chevron,ioos:station:wmo:42876:1,2021-07-01T17:36:00Z,26.2975,-91.0940,1.8,28.4,11111222
Chevron,ioos:station:wmo:42876:1,2021-07-01T17:46:00Z,26.2975,-91.0940,1.4,28.3,11111222
Chevron,ioos:station:wmo:42876:1,2021-07-01T17:56:00Z,26.2975,-91.0940,1.6,28.3,11111222
Chevron,ioos:station:wmo:42876:1,2021-07-01T18:06:00Z,26.2975,-91.0940,1.6,28.4,11111222
Chevron,ioos:station:wmo:42876:1,2021-07-01T18:16:00Z,26.2975,-91.0940,1.6,28.4,11111222
Chevron,ioos:station:wmo:42876:1,2021-07-01T18:26:00Z,26.2975,-91.0940,1.7,28.4,11111222
Chevron,ioos:station:wmo:42876:1,2021-07-01T18:36:00Z,26.2975,-91.0940,1.4,28.4,11111222
Chevron,ioos:station:wmo:42876:1,2021-07-01T18:46:00Z,26.2975,-91.0940,1.5,28.4,11111222
Chevron,ioos:station:wmo:42876:1,2021-07-01T18:56:00Z,26.2975,-91.0940,1.6,28.4,11111222
Chevron,ioos:station:wmo:42876:1,2021-07-01T19:06:00Z,26.2975,-91.0940,1.7,28.4,11111222
Chevron,ioos:station:wmo:42876:1,2021-07-01T19:16:00Z,26.2975,-91.0940,1.8,28.4,11111222
Chevron,ioos:station:wmo:42876:1,2021-07-01T19:26:00Z,26.2975,-91.0940,1.6,28.4,11111222
Chevron,ioos:station:wmo:42876:1,2021-07-01T19:36:00Z,26.2975,-91.0940,1.5,28.4,11111222
Chevron,ioos:station:wmo:42876:1,2021-07-01T19:46:00Z,26.2975,-91.0940,1.8,28.4,11111222
Chevron,ioos:station:wmo:42876:1,2021-07-01T19:56:00Z,26.2975,-91.0940,2.1,28.4,11111222
Chevron,ioos:station:wmo:42876:1,2021-07-01T20:06:00Z,26.2975,-91.0940,2.0,28.4,11111222
Chevron,ioos:station:wmo:42876:1,2021-07-01T20:16:00Z,26.2975,-91.0940,2.1,28.4,11111222
Chevron,ioos:station:wmo:42876:1,2021-07-01T20:26:00Z,26.2975,-91.0940,2.0,28.4,11111222
Chevron,ioos:station:wmo:42876:1,2021-07-01T20:36:00Z,26.2975,-91.0940,2.0,28.4,11111222
Chevron,ioos:station:wmo:42876:1,2021-07-01T20:46:00Z,26.2975,-91.0940,1.8,28.4,11111222
Chevron,ioos:station:wmo:42876:1,2021-07-01T20:56:00Z,26.2975,-91.0940,1.6,28.5,11111222
Chevron,ioos:station:wmo:42876:1,2021-07-01T21:06:00Z,26.2975,-91.0940,1.8,28.5,11111222
Chevron,ioos:station:wmo:42876:1,2021-07-01T21:16:00Z,26.2975,-91.0940,1.8,28.5,11111222
Chevron,ioos:station:wmo:42876:1,2021-07-01T21:26:00Z,26.2975,-91.0940,1.9,28.4,11111222
Chevron,ioos:station:wmo:42876:1,2021-07-01T21:36:00Z,26.2975,-91.0940,1.9,28.4,11111222
Chevron,ioos:station:wmo:42876:1,2021-07-01T21:46:00Z,26.2975,-91.0940,1.7,28.5,11111222
Chevron,ioos:station:wmo:42876:1,2021-07-01T21:56:00Z,26.2975,-91.0940,1.6,28.5,11111222
Chevron,ioos:station:wmo:42876:1,2021-07-01T22:06:00Z,26.2975,-91.0940,1.8,28.5,11111222
Chevron,ioos:station:wmo:42876:1,2021-07-01T22:16:00Z,26.2975,-91.0940,1.8,28.5,11111222
Chevron,ioos:station:wmo:42876:1,2021-07-01T22:26:00Z,26.2975,-91.0940,1.6,28.5,11111222
Chevron,ioos:station:wmo:42876:1,2021-07-01T22:36:00Z,26.2975,-91.0940,1.7,28.5,11111222
Chevron,ioos:station:wmo:42876:1,2021-07-01T22:46:00Z,26.2975,-91.0940,1.9,28.5,11111222
Chevron,ioos:station:wmo:42876:1,2021-07-01T22:56:00Z,26.2975,-91.0940,1.5,28.5,11111222
Chevron,ioos:station:wmo:42876:1,2021-07-01T23:06:00Z,26.2975,-91.0940,1.8,28.5,11111222
Chevron,ioos:station:wmo:42876:1,2021-07-01T23:16:00Z,26.2975,-91.0940,1.7,28.5,11111222
Chevron,ioos:station:wmo:42876:1,2021-07-01T23:26:00Z,26.2975,-91.0940,1.8,28.5,11111222
Chevron,ioos:station:wmo:42876:1,2021-07-01T23:36:00Z,26.2975,-91.0940,1.8,28.5,11111222
Chevron,ioos:station:wmo:42876:1,2021-07-01T23:46:00Z,26.2975,-91.0940,1.9,28.5,11111222
Chevron,ioos:station:wmo:42876:1,2021-07-01T23:56:00Z,26.2975,-91.0940,1.9,28.4,11111222
Chevron,ioos:station:wmo:42876:1,2021-07-02T00:06:00Z,26.2975,-91.0940,1.8,28.4,11111222
Chevron,ioos:station:wmo:42876:1,2021-07-02T00:16:00Z,26.2975,-91.0940,1.7,28.4,11111222
Chevron,ioos:station:wmo:42876:1,2021-07-02T00:26:00Z,26.2975,-91.0940,1.6,28.4,11111222
Chevron,ioos:station:wmo:42876:1,2021-07-02T00:36:00Z,26.2975,-91.0940,1.8,28.4,11111222
Chevron,ioos:station:wmo:42876:1,2021-07-02T00:46:00Z,26.2975,-91.0940,1.4,28.4,11111222
Chevron,ioos:station:wmo:42876:1,2021-07-02T00:56:00Z,26.2975,-91.0940,1.6,28.4,11111222
Chevron,ioos:station:wmo:42876:1,2021-07-02T01:06:00Z,26.2975,-91.0940,1.4,28.4,11111222
Chevron,ioos:station:wmo:42876:1,2021-07-02T01:16:00Z,26.2975,-91.0940,1.5,28.4,11111222
Chevron,ioos:station:wmo:42876:1,2021-07-02T01:26:00Z,26.2975,-91.0940,1.7,28.4,11111222
Chevron,ioos:station:wmo:42876:1,2021-07-02T01:36:00Z,26.2975,-91.0940,1.8,28.4,11111222
Chevron,ioos:station:wmo:42876:1,2021-07-02T01:46:00Z,26.2975,-91.0940,1.7,28.5,11111222
Chevron,ioos:station:wmo:42876:1,2021-07-02T01:56:00Z,26.2975,-91.0940,1.6,28.5,11111222
Chevron,ioos:station:wmo:42876:1,2021-07-02T02:06:00Z,26.2975,-91.0940,1.6,28.3,11111222
Chevron,ioos:station:wmo:42876:1,2021-07-02T02:16:00Z,26.2975,-91.0940,1.6,28.4,11111222
Chevron,ioos:station:wmo:42876:1,2021-07-02T02:26:00Z,26.2975,-91.0940,1.7,28.4,11111222
Chevron,ioos:station:wmo:42876:1,2021-07-02T02:36:00Z,26.2975,-91.0940,1.7,28.4,11111222
Chevron,ioos:station:wmo:42876:1,2021-07-02T02:46:00Z,26.2975,-91.0940,1.6,28.4,11111222
Chevron,ioos:station:wmo:42876:1,2021-07-02T02:56:00Z,26.2975,-91.0940,1.6,28.4,11111222
Chevron,ioos:station:wmo:42876:1,2021-07-02T03:06:00Z,26.2973,-91.0939,1.6,28.4,11111222
Chevron,ioos:station:wmo:42876:1,2021-07-02T03:16:00Z,26.2971,-91.0937,1.6,28.4,11111222
Chevron,ioos:station:wmo:42876:1,2021-07-02T03:26:00Z,26.2971,-91.0937,2.0,28.5,11111222
Chevron,ioos:station:wmo:42876:1,2021-07-02T03:36:00Z,26.2971,-91.0937,2.1,28.5,11111222
Chevron,ioos:station:wmo:42876:1,2021-07-02T03:46:00Z,26.2970,-91.0940,1.7,28.5,11111222
Chevron,ioos:station:wmo:42876:1,2021-07-02T03:56:00Z,26.2968,-91.0950,2.1,28.5,11111222
Chevron,ioos:station:wmo:42876:1,2021-07-02T04:06:00Z,26.2967,-91.0956,2.0,28.5,11111222
Chevron,ioos:station:wmo:42876:1,2021-07-02T04:16:00Z,26.2966,-91.0956,2.1,28.4,11111222
Chevron,ioos:station:wmo:42876:1,2021-07-02T04:26:00Z,26.2966,-91.0956,1.8,28.4,11111222
Chevron,ioos:station:wmo:42876:1,2021-07-02T04:36:00Z,26.2966,-91.0956,1.7,28.4,11111222
Chevron,ioos:station:wmo:42876:1,2021-07-02T04:46:00Z,26.2967,-91.0956,1.9,28.4,11111222
Chevron,ioos:station:wmo:42876:1,2021-07-02T04:56:00Z,26.2967,-91.0956,2.0,28.4,11111222
Chevron,ioos:station:wmo:42876:1,2021-07-02T05:06:00Z,26.2964,-91.0959,1.9,28.4,11111222
Chevron,ioos:station:wmo:42876:1,2021-07-02T05:16:00Z,26.2958,-91.0966,1.7,28.4,11111222
Chevron,ioos:station:wmo:42876:1,2021-07-02T05:26:00Z,26.2952,-91.0972,2.1,28.4,11111222
Chevron,ioos:station:wmo:42876:1,2021-07-02T05:36:00Z,26.2948,-91.0977,2.0,28.4,11111222
Chevron,ioos:station:wmo:42876:1,2021-07-02T05:46:00Z,26.2948,-91.0977,1.8,28.4,11111222
Chevron,ioos:station:wmo:42876:1,2021-07-02T05:56:00Z,26.2948,-91.0977,2.0,28.4,11111222
Chevron,ioos:station:wmo:42876:1,2021-07-02T06:06:00Z,26.2948,-91.0977,1.7,28.4,11111222
Chevron,ioos:station:wmo:42876:1,2021-07-02T06:16:00Z,26.2948,-91.0977,1.8,28.4,11111222
Chevron,ioos:station:wmo:42876:1,2021-07-02T06:26:00Z,26.2948,-91.0977,1.9,28.4,11111222
Chevron,ioos:station:wmo:42876:1,2021-07-02T06:36:00Z,26.2948,-91.0977,1.9,28.4,11111222
Chevron,ioos:station:wmo:42876:1,2021-07-02T06:46:00Z,26.2948,-91.0977,1.8,28.4,11111222
Chevron,ioos:station:wmo:42876:1,2021-07-02T06:56:00Z,26.2948,-91.0977,1.9,28.4,11111222
Chevron,ioos:station:wmo:42876:1,2021-07-02T07:06:00Z,26.2948,-91.0977,1.8,28.4,11111222
Chevron,ioos:station:wmo:42876:1,2021-07-02T07:16:00Z,26.2948,-91.0977,1.9,28.4,11111222
Chevron,ioos:station:wmo:42876:1,2021-07-02T07:26:00Z,26.2948,-91.0977,2.0,28.4,11111222
Chevron,ioos:station:wmo:42876:1,2021-07-02T07:36:00Z,26.2948,-91.0977,2.1,28.4,11111222
Chevron,ioos:station:wmo:42876:1,2021-07-02T07:46:00Z,26.2948,-91.0977,1.9,28.4,11111222
Chevron,ioos:station:wmo:42876:1,2021-07-02T07:56:00Z,26.2948,-91.0977,2.0,28.4,11111222
Chevron,ioos:station:wmo:42876:1,2021-07-02T08:06:00Z,26.2948,-91.0977,1.7,28.4,11111222
Chevron,ioos:station:wmo:42876:1,2021-07-02T08:16:00Z,26.2948,-91.0977,2.0,28.4,11111222
Chevron,ioos:station:wmo:42876:1,2021-07-02T08:26:00Z,26.2948,-91.0977,1.8,28.3,11111222
Chevron,ioos:station:wmo:42876:1,2021-07-02T08:36:00Z,26.2948,-91.0977,1.7,28.3,11111222
Chevron,ioos:station:wmo:42876:1,2021-07-02T08:46:00Z,26.2948,-91.0977,1.6,28.3,11111222
Chevron,ioos:station:wmo:42876:1,2021-07-02T08:56:00Z,26.2948,-91.0977,1.8,28.3,11111222
Chevron,ioos:station:wmo:42876:1,2021-07-02T09:06:00Z,26.2948,-91.0977,1.7,28.4,11111222
Chevron,ioos:station:wmo:42876:1,2021-07-02T09:16:00Z,26.2948,-91.0977,2.0,28.4,11111222
Chevron,ioos:station:wmo:42876:1,2021-07-02T09:26:00Z,26.2948,-91.0977,2.0,28.4,11111222
Chevron,ioos:station:wmo:42876:1,2021-07-02T09:36:00Z,26.2948,-91.0977,2.0,28.4,11111222
Chevron,ioos:station:wmo:42876:1,2021-07-02T09:46:00Z,26.2948,-91.0977,1.8,28.4,11111222
Chevron,ioos:station:wmo:42876:1,2021-07-02T09:56:00Z,26.2948,-91.0977,1.7,28.4,11111222
Chevron,ioos:station:wmo:42876:1,2021-07-02T10:06:00Z,26.2948,-91.0977,1.9,28.4,11111222
Chevron,ioos:station:wmo:42876:1,2021-07-02T10:16:00Z,26.2948,-91.0977,1.9,28.4,11111222
Chevron,ioos:station:wmo:42876:1,2021-07-02T10:26:00Z,26.2948,-91.0977,2.0,28.4,11111222
Chevron,ioos:station:wmo:42876:1,2021-07-02T10:36:00Z,26.2948,-91.0977,1.9,28.4,11111222
Chevron,ioos:station:wmo:42876:1,2021-07-02T10:46:00Z,26.2948,-91.0977,2.2,28.4,11111222
Chevron,ioos:station:wmo:42876:1,2021-07-02T10:56:00Z,26.2948,-91.0977,1.9,28.4,11111222
Chevron,ioos:station:wmo:42876:1,2021-07-02T11:06:00Z,26.2948,-91.0977,1.8,28.4,11111222
Chevron,ioos:station:wmo:42876:1,2021-07-02T11:16:00Z,26.2948,-91.0977,1.7,28.4,11111222
Chevron,ioos:station:wmo:42876:1,2021-07-02T11:26:00Z,26.2948,-91.0977,1.5,28.4,11111222
Chevron,ioos:station:wmo:42876:1,2021-07-02T11:36:00Z,26.2948,-91.0977,1.9,28.5,11111222
Chevron,ioos:station:wmo:42876:1,2021-07-02T11:46:00Z,26.2948,-91.0977,1.8,28.5,11111222
Chevron,ioos:station:wmo:42876:1,2021-07-02T11:56:00Z,26.2948,-91.0977,1.7,28.5,11111222
Chevron,ioos:station:wmo:42876:1,2021-07-02T12:06:00Z,26.2948,-91.0977,1.7,28.5,11111222
Chevron,ioos:station:wmo:42876:1,2021-07-02T12:16:00Z,26.2948,-91.0977,1.7,28.4,11111222
Chevron,ioos:station:wmo:42876:1,2021-07-02T12:26:00Z,26.2948,-91.0977,1.7,28.4,11111222
Chevron,ioos:station:wmo:42876:1,2021-07-02T12:36:00Z,26.2948,-91.0977,1.7,28.4,11111222
Chevron,ioos:station:wmo:42876:1,2021-07-02T12:46:00Z,26.2948,-91.0977,1.6,28.4,11111222
Chevron,ioos:station:wmo:42876:1,2021-07-02T12:56:00Z,26.2948,-91.0977,1.7,28.4,11111222
Chevron,ioos:station:wmo:42876:1,2021-07-02T13:06:00Z,26.2948,-91.0977,2.0,28.4,11111222
Chevron,ioos:station:wmo:42876:1,2021-07-02T13:16:00Z,26.2948,-91.0977,2.0,28.4,11111222
Chevron,ioos:station:wmo:42876:1,2021-07-02T13:26:00Z,26.2948,-91.0977,2.0,28.4,11111222
Chevron,ioos:station:wmo:42876:1,2021-07-02T13:36:00Z,26.2948,-91.0977,2.2,28.4,11111222
Chevron,ioos:station:wmo:42876:1,2021-07-02T13:46:00Z,26.2948,-91.0977,2.1,28.4,11111222
Chevron,ioos:station:wmo:42876:1,2021-07-02T13:56:00Z,26.2948,-91.0977,1.9,28.5,11111222
Chevron,ioos:station:wmo:42876:1,2021-07-02T14:06:00Z,26.2948,-91.0977,1.8,28.5,11111222
Chevron,ioos:station:wmo:42876:1,2021-07-02T14:16:00Z,26.2948,-91.0977,2.2,28.5,11111222
Chevron,ioos:station:wmo:42876:1,2021-07-02T14:26:00Z,26.2948,-91.0977,1.9,28.5,11111222
Chevron,ioos:station:wmo:42876:1,2021-07-02T14:36:00Z,26.2948,-91.0977,1.5,28.5,11111222
Chevron,ioos:station:wmo:42876:1,2021-07-02T14:46:00Z,26.2948,-91.0977,1.7,28.5,11111222
Chevron,ioos:station:wmo:42876:1,2021-07-02T14:56:00Z,26.2948,-91.0977,2.0,28.4,11111222
Chevron,ioos:station:wmo:42876:1,2021-07-02T15:06:00Z,26.2948,-91.0977,2.0,28.4,11111222
Chevron,ioos:station:wmo:42876:1,2021-07-02T15:16:00Z,26.2948,-91.0977,1.8,28.4,11111222
Chevron,ioos:station:wmo:42876:1,2021-07-02T15:26:00Z,26.2948,-91.0977,1.7,28.4,11111222
Chevron,ioos:station:wmo:42876:1,2021-07-02T15:36:00Z,26.2948,-91.0977,1.6,28.4,11111222
Chevron,ioos:station:wmo:42876:1,2021-07-02T15:46:00Z,26.2948,-91.0977,1.4,28.4,11111222
Chevron,ioos:station:wmo:42876:1,2021-07-02T15:56:00Z,26.2948,-91.0977,1.5,28.4,11111222
Chevron,ioos:station:wmo:42876:1,2021-07-02T16:06:00Z,26.2948,-91.0977,1.6,28.4,11111222
Chevron,ioos:station:wmo:42876:1,2021-07-02T16:16:00Z,26.2948,-91.0977,1.5,28.5,11111222
Chevron,ioos:station:wmo:42876:1,2021-07-02T16:26:00Z,26.2948,-91.0977,1.4,28.5,11111222
Chevron,ioos:station:wmo:42876:1,2021-07-02T16:36:00Z,26.2948,-91.0977,1.6,28.5,11111222
Chevron,ioos:station:wmo:42876:1,2021-07-02T16:46:00Z,26.2948,-91.0977,1.6,28.6,11111222
Chevron,ioos:station:wmo:42876:1,2021-07-02T16:56:00Z,26.2948,-91.0977,1.5,28.5,11111222
Chevron,ioos:station:wmo:42876:1,2021-07-02T17:06:00Z,26.2948,-91.0977,1.7,28.5,11111222
Chevron,ioos:station:wmo:42876:1,2021-07-02T17:16:00Z,26.2948,-91.0977,1.9,28.6,11111222
Chevron,ioos:station:wmo:42876:1,2021-07-02T17:26:00Z,26.2948,-91.0977,2.0,28.6,11111222
Chevron,ioos:station:wmo:42876:1,2021-07-02T17:36:00Z,26.2954,-91.0971,1.7,28.7,11111222
Chevron,ioos:station:wmo:42876:1,2021-07-02T17:46:00Z,26.2960,-91.0964,2.0,28.7,11111222
Chevron,ioos:station:wmo:42876:1,2021-07-02T17:56:00Z,26.2965,-91.0958,1.7,28.6,11111222
Chevron,ioos:station:wmo:42876:1,2021-07-02T18:06:00Z,26.2968,-91.0951,1.9,28.7,11111222
Chevron,ioos:station:wmo:42876:1,2021-07-02T18:16:00Z,26.2969,-91.0942,1.8,28.6,11111222
Chevron,ioos:station:wmo:42876:1,2021-07-02T18:26:00Z,26.2971,-91.0937,2.0,28.6,11111222
Chevron,ioos:station:wmo:42876:1,2021-07-02T18:36:00Z,26.2971,-91.0937,1.9,28.6,11111222
Chevron,ioos:station:wmo:42876:1,2021-07-02T18:46:00Z,26.2971,-91.0937,2.0,28.5,11111222
Chevron,ioos:station:wmo:42876:1,2021-07-02T18:56:00Z,26.2971,-91.0937,1.9,28.5,11111222
Chevron,ioos:station:wmo:42876:1,2021-07-02T19:06:00Z,26.2971,-91.0937,1.7,28.5,11111222
Chevron,ioos:station:wmo:42876:1,2021-07-02T19:16:00Z,26.2971,-91.0937,1.8,28.5,11111222
Chevron,ioos:station:wmo:42876:1,2021-07-02T19:26:00Z,26.2971,-91.0938,1.9,28.4,11111222
Chevron,ioos:station:wmo:42876:1,2021-07-02T19:36:00Z,26.2971,-91.0938,1.6,28.5,11111222
Chevron,ioos:station:wmo:42876:1,2021-07-02T19:46:00Z,26.2971,-91.0938,1.6,28.4,11111222
Chevron,ioos:station:wmo:42876:1,2021-07-02T19:56:00Z,26.2971,-91.0938,1.8,28.4,11111222
Chevron,ioos:station:wmo:42876:1,2021-07-02T20:06:00Z,26.2971,-91.0938,1.8,28.5,11111222